QPF
0.00 0.00 0.00 0.00 0.00 0.00 0.00 0.00 0.00 0.00 0.00 0.00 0.00 0.00 0.00 0.00 0.00 0.00 0.00 0.00 0.00 0.00 0.00 0.00 0.00 0.00 0.00 0.00 0.00 0.00 0.00 0.00 0.00 0.00 0.00 0.00 0.00 0.00 0.00 0.00 0.01 0.01 0.02 0.03 0.03 0.03 0.02 0.02 0.01
0.00 0.00 0.00 0.00 0.00 0.00 0.00 0.00 0.00 0.00 0.00 0.00 0.00 0.00 0.00 0.00 0.00 0.00 0.00 0.00 0.00 0.00 0.00 0.00 0.00 0.00 0.00 0.00 0.00 0.00 0.00 0.00 0.00 0.00 0.00 0.00 0.00 0.00 0.00 0.00 0.01 0.01 0.01 0.01 0.01 0.01 0.01 0.01 0.00
0.00 0.00 0.00 0.00 0.00 0.00 0.00 0.00 0.00 0.00 0.00 0.00 0.00 0.00 0.00 0.00 0.00 0.00 0.00 0.00 0.00 0.00 0.00 0.00 0.00 0.00 0.00 0.00 0.00 0.00 0.00 0.00 0.00 0.00 0.00 0.00 0.00 0.00 0.00 0.00 0.00 0.00 0.00 0.00 0.00 0.00 0.00 0.00 0.00
0.00 0.00 0.00 0.00 0.00 0.00 0.00 0.00 0.00 0.00 0.00 0.00 0.00 0.00 0.00 0.00 0.00 0.00 0.00 0.00 0.00 0.00 0.00 0.00 0.00 0.00 0.00 0.00 0.00 0.00 0.00 0.00 0.00 0.00 0.00 0.00 0.00 0.00 0.00 0.00 0.00 0.00 0.00 0.00 0.00 0.00 0.00 0.00 0.00
0.00 0.00 0.00 0.00 0.00 0.00 0.00 0.00 0.00 0.00 0.00 0.00 0.00 0.00 0.00 0.00 0.00 0.00 0.00 0.00 0.00 0.00 0.00 0.00 0.00 0.00 0.00 0.00 0.00 0.00 0.00 0.00 0.00 0.00 0.00 0.00 0.00 0.00 0.00 0.00 0.00 0.00 0.00 0.00 0.00 0.00 0.00 0.00 0.00
0.00 0.00 0.00 0.00 0.00 0.00 0.00 0.00 0.00 0.00 0.00 0.00 0.00 0.00 0.00 0.00 0.00 0.00 0.00 0.00 0.00 0.00 0.00 0.00 0.00 0.00 0.00 0.00 0.00 0.00 0.00 0.00 0.00 0.00 0.00 0.00 0.00 0.00 0.00 0.00 0.00 0.00 0.00 0.00 0.00 0.00 0.00 0.00 0.00
0.00 0.00 0.00 0.00 0.00 0.00 0.00 0.00 0.00 0.00 0.00 0.00 0.00 0.00 0.00 0.00 0.00 0.00 0.00 0.01 0.01 0.01 0.00 0.00 0.00 0.00 0.00 0.00 0.00 0.00 0.00 0.00 0.00 0.00 0.00 0.00 0.00 0.00 0.00 0.00 0.00 0.00 0.00 0.00 0.00 0.00 0.00 0.00 0.00
0.00 0.00 0.00 0.00 0.00 0.00 0.00 0.00 0.00 0.00 0.00 0.00 0.00 0.00 0.00 0.00 0.00 0.00 0.01 0.02 0.02 0.02 0.01 0.00 0.00 0.00 0.00 0.00 0.00 0.00 0.00 0.00 0.00 0.00 0.00 0.00 0.00 0.00 0.00 0.00 0.00 0.00 0.00 0.00 0.00 0.00 0.00 0.00 0.00
0.00 0.00 0.00 0.00 0.00 0.00 0.00 0.00 0.00 0.00 0.00 0.00 0.00 0.00 0.00 0.00 0.00 0.01 0.01 0.02 0.02 0.02 0.01 0.00 0.00 0.00 0.00 0.00 0.00 0.00 0.00 0.00 0.00 0.00 0.00 0.00 0.00 0.00 0.00 0.00 0.00 0.00 0.00 0.00 0.00 0.00 0.00 0.00 0.00
0.00 0.00 0.00 0.00 0.00 0.00 0.00 0.00 0.00 0.00 0.00 0.00 0.00 0.00 0.00 0.00 0.00 0.00 0.01 0.01 0.02 0.02 0.02 0.01 0.00 0.00 0.00 0.00 0.00 0.00 0.00 0.00 0.00 0.00 0.00 0.00 0.00 0.00 0.00 0.00 0.00 0.00 0.00 0.00 0.00 0.00 0.00 0.00 0.00
0.00 0.00 0.00 0.00 0.00 0.00 0.00 0.00 0.00 0.00 0.00 0.00 0.00 0.00 0.00 0.00 0.00 0.00 0.00 0.01 0.01 0.02 0.01 0.01 0.00 0.00 0.00 0.00 0.00 0.00 0.00 0.00 0.00 0.00 0.00 0.00 0.00 0.00 0.00 0.00 0.00 0.00 0.00 0.00 0.00 0.00 0.00 0.00 0.00
0.00 0.00 0.00 0.00 0.00 0.00 0.00 0.00 0.00 0.00 0.00 0.00 0.00 0.00 0.00 0.00 0.00 0.00 0.00 0.00 0.01 0.01 0.01 0.01 0.00 0.00 0.00 0.00 0.00 0.00 0.00 0.00 0.00 0.00 0.00 0.00 0.00 0.00 0.00 0.00 0.00 0.00 0.00 0.00 0.00 0.00 0.00 0.00 0.00
0.00 0.00 0.00 0.00 0.00 0.00 0.00 0.00 0.00 0.00 0.00 0.00 0.00 0.00 0.00 0.00 0.00 0.00 0.00 0.01 0.01 0.01 0.01 0.01 0.01 0.00 0.00 0.00 0.00 0.00 0.00 0.00 0.00 0.00 0.00 0.00 0.00 0.00 0.00 0.00 0.00 0.00 0.00 0.00 0.00 0.00 0.00 0.00 0.00
0.00 0.00 0.00 0.00 0.00 0.00 0.00 0.00 0.00 0.00 0.00 0.00 0.00 0.00 0.00 0.00 0.00 0.00 0.00 0.01 0.01 0.01 0.01 0.01 0.01 0.01 0.00 0.00 0.00 0.00 0.00 0.00 0.00 0.00 0.00 0.00 0.00 0.00 0.00 0.00 0.00 0.00 0.00 0.00 0.00 0.00 0.00 0.00 0.00
0.00 0.00 0.00 0.00 0.00 0.00 0.00 0.00 0.00 0.00 0.00 0.00 0.00 0.00 0.00 0.00 0.00 0.00 0.00 0.00 0.01 0.01 0.02 0.02 0.02 0.02 0.01 0.00 0.00 0.00 0.00 0.00 0.00 0.00 0.00 0.00 0.00 0.00 0.00 0.00 0.00 0.00 0.00 0.00 0.00 0.00 0.00 0.00 0.00
0.00 0.00 0.00 0.00 0.00 0.00 0.00 0.00 0.00 0.00 0.00 0.00 0.00 0.00 0.00 0.00 0.00 0.00 0.00 0.00 0.00 0.01 0.01 0.02 0.02 0.02 0.02 0.01 0.01 0.01 0.01 0.01 0.01 0.01 0.00 0.00 0.00 0.00 0.00 0.00 0.00 0.00 0.00 0.00 0.00 0.00 0.00 0.00 0.00
0.00 0.00 0.00 0.00 0.00 0.00 0.00 0.00 0.00 0.00 0.00 0.00 0.00 0.00 0.00 0.00 0.00 0.00 0.00 0.00 0.00 0.00 0.01 0.01 0.02 0.03 0.04 0.04 0.04 0.03 0.03 0.01 0.01 0.01 0.01 0.00 0.00 0.00 0.00 0.00 0.00 0.00 0.00 0.00 0.00 0.00 0.00 0.00 0.00
0.00 0.00 0.00 0.00 0.00 0.00 0.00 0.00 0.00 0.00 0.00 0.00 0.00 0.00 0.00 0.00 0.00 0.00 0.00 0.00 0.00 0.00 0.00 0.01 0.02 0.04 0.06 0.08 0.09 0.08 0.06 0.04 0.03 0.02 0.01 0.01 0.01 0.00 0.00 0.00 0.00 0.00 0.00 0.00 0.00 0.00 0.00 0.00 0.00
0.00 0.00 0.00 0.00 0.00 0.00 0.00 0.00 0.00 0.00 0.00 0.00 0.00 0.00 0.00 0.00 0.00 0.00 0.00 0.00 0.00 0.00 0.00 0.00 0.01 0.03 0.06 0.07 0.06 0.06 0.05 0.05 0.04 0.03 0.03 0.03 0.02 0.01 0.00 0.00 0.00 0.00 0.00 0.00 0.00 0.00 0.00 0.00 0.00
0.00 0.00 0.00 0.00 0.00 0.00 0.00 0.00 0.00 0.00 0.00 0.00 0.00 0.00 0.00 0.00 0.00 0.00 0.00 0.00 0.00 0.00 0.00 0.00 0.00 0.01 0.03 0.03 0.05 0.09 0.12 0.11 0.10 0.07 0.05 0.04 0.03 0.02 0.01 0.01 0.01 0.00 0.00 0.00 0.00 0.00 0.00 0.00 0.00
0.01 0.00 0.00 0.00 0.00 0.00 0.00 0.00 0.00 0.00 0.00 0.00 0.00 0.00 0.00 0.00 0.00 0.00 0.00 0.00 0.00 0.00 0.00 0.00 0.00 0.01 0.03 0.04 0.08 0.10 0.11 0.09 0.07 0.04 0.03 0.03 0.04 0.04 0.03 0.03 0.03 0.02 0.01 0.01 0.01 0.00 0.00 0.00 0.00
0.01 0.00 0.00 0.00 0.00 0.00 0.00 0.00 0.00 0.00 0.00 0.00 0.00 0.00 0.00 0.00 0.00 0.00 0.00 0.00 0.00 0.00 0.00 0.00 0.01 0.02 0.03 0.04 0.05 0.05 0.04 0.03 0.03 0.04 0.05 0.06 0.07 0.05 0.05 0.04 0.03 0.03 0.02 0.02 0.01 0.01 0.00 0.00 0.00
0.00 0.00 0.00 0.00 0.00 0.00 0.00 0.00 0.00 0.00 0.00 0.00 0.00 0.00 0.00 0.00 0.00 0.00 0.00 0.00 0.00 0.00 0.00 0.00 0.01 0.02 0.03 0.04 0.04 0.05 0.04 0.04 0.06 0.06 0.06 0.06 0.06 0.05 0.05 0.05 0.04 0.04 0.03 0.03 0.02 0.01 0.01 0.01 0.00
0.00 0.00 0.00 0.00 0.00 0.00 0.00 0.00 0.00 0.00 0.00 0.00 0.00 0.00 0.00 0.00 0.00 0.00 0.00 0.00 0.00 0.00 0.00 0.00 0.00 0.01 0.02 0.03 0.04 0.04 0.03 0.03 0.04 0.03 0.04 0.04 0.06 0.06 0.05 0.05 0.05 0.04 0.03 0.03 0.02 0.01 0.01 0.00 0.00
0.00 0.00 0.00 0.00 0.00 0.00 0.00 0.00 0.00 0.00 0.00 0.00 0.00 0.00 0.00 0.00 0.00 0.00 0.00 0.00 0.00 0.00 0.00 0.00 0.00 0.00 0.01 0.02 0.03 0.03 0.03 0.03 0.04 0.04 0.05 0.06 0.05 0.05 0.05 0.05 0.04 0.04 0.03 0.03 0.02 0.02 0.01 0.00 0.00
0.00 0.00 0.00 0.00 0.00 0.00 0.00 0.00 0.00 0.00 0.00 0.00 0.00 0.00 0.00 0.00 0.00 0.00 0.00 0.00 0.00 0.00 0.00 0.00 0.00 0.00 0.01 0.01 0.02 0.02 0.02 0.03 0.04 0.05 0.05 0.06 0.07 0.08 0.07 0.06 0.04 0.04 0.03 0.02 0.02 0.01 0.00 0.00 0.00
0.00 0.00 0.00 0.00 0.00 0.00 0.00 0.00 0.00 0.00 0.00 0.00 0.00 0.00 0.00 0.00 0.00 0.00 0.00 0.00 0.00 0.00 0.00 0.00 0.00 0.00 0.01 0.01 0.02 0.02 0.02 0.03 0.04 0.04 0.05 0.06 0.06 0.06 0.06 0.05 0.04 0.04 0.03 0.02 0.01 0.01 0.00 0.00 0.00
0.00 0.00 0.00 0.00 0.00 0.00 0.00 0.00 0.00 0.00 0.00 0.00 0.00 0.00 0.00 0.00 0.00 0.00 0.00 0.00 0.00 0.00 0.00 0.00 0.00 0.00 0.01 0.01 0.02 0.02 0.02 0.03 0.04 0.04 0.04 0.04 0.05 0.04 0.04 0.03 0.03 0.03 0.02 0.01 0.01 0.01 0.00 0.00 0.00
0.00 0.00 0.00 0.00 0.00 0.00 0.00 0.00 0.00 0.00 0.00 0.00 0.00 0.00 0.00 0.00 0.00 0.00 0.00 0.00 0.00 0.00 0.00 0.01 0.01 0.01 0.01 0.01 0.02 0.02 0.02 0.03 0.03 0.03 0.04 0.04 0.03 0.03 0.03 0.03 0.03 0.02 0.02 0.01 0.01 0.00 0.00 0.00 0.00
0.00 0.00 0.00 0.00 0.00 0.00 0.00 0.00 0.00 0.00 0.00 0.00 0.00 0.00 0.00 0.00 0.00 0.00 0.00 0.00 0.00 0.01 0.01 0.01 0.01 0.01 0.01 0.02 0.02 0.02 0.02 0.03 0.03 0.03 0.03 0.03 0.03 0.03 0.03 0.03 0.02 0.02 0.01 0.01 0.00 0.00 0.00 0.00 0.00
MSLP
1013.73 1014.46 1015.38 1016.33 1017.14 1017.66 1017.76 1017.43 1016.71 1015.72 1014.65 1013.66 1012.88 1012.38 1012.18 1012.20 1012.35 1012.51 1012.61 1012.60 1012.50 1012.35 1012.24 1012.22 1012.34 1012.61 1012.99 1013.42 1013.84 1014.22 1014.53 1014.76 1014.96 1015.15 1015.35 1015.58 1015.82 1016.05 1016.24 1016.37 1016.43 1016.44 1016.43 1016.44 1016.50 1016.62 1016.80 1017.00 1017.19
1014.20 1015.05 1016.01 1016.92 1017.60 1017.91 1017.77 1017.17 1016.20 1015.02 1013.80 1012.73 1011.94 1011.47 1011.33 1011.43 1011.66 1011.91 1012.08 1012.15 1012.13 1012.07 1012.03 1012.09 1012.28 1012.60 1013.01 1013.47 1013.92 1014.31 1014.63 1014.89 1015.11 1015.32 1015.54 1015.79 1016.05 1016.29 1016.48 1016.60 1016.65 1016.65 1016.64 1016.64 1016.69 1016.79 1016.95 1017.12 1017.29
1014.68 1015.59 1016.54 1017.35 1017.86 1017.95 1017.57 1016.76 1015.61 1014.30 1013.02 1011.94 1011.17 1010.77 1010.69 1010.86 1011.15 1011.45 1011.69 1011.82 1011.87 1011.88 1011.92 1012.04 1012.29 1012.65 1013.09 1013.56 1014.00 1014.39 1014.71 1014.97 1015.20 1015.43 1015.68 1015.95 1016.23 1016.47 1016.67 1016.79 1016.85 1016.85 1016.83 1016.83 1016.87 1016.97 1017.10 1017.26 1017.41
1015.10 1016.01 1016.89 1017.55 1017.88 1017.76 1017.19 1016.22 1014.97 1013.61 1012.35 1011.32 1010.63 1010.30 1010.29 1010.51 1010.85 1011.19 1011.46 1011.64 1011.75 1011.83 1011.93 1012.12 1012.42 1012.80 1013.24 1013.69 1014.11 1014.47 1014.77 1015.02 1015.25 1015.50 1015.76 1016.06 1016.35 1016.61 1016.82 1016.95 1017.02 1017.03 1017.02 1017.02 1017.06 1017.15 1017.28 1017.42 1017.55
1015.43 1016.28 1017.02 1017.51 1017.64 1017.35 1016.63 1015.57 1014.31 1013.00 1011.82 1010.90 1010.32 1010.08 1010.14 1010.39 1010.75 1011.10 1011.40 1011.61 1011.77 1011.91 1012.09 1012.33 1012.66 1013.05 1013.47 1013.88 1014.25 1014.56 1014.81 1015.04 1015.27 1015.52 1015.80 1016.12 1016.43 1016.71 1016.94 1017.09 1017.17 1017.19 1017.20 1017.21 1017.26 1017.35 1017.46 1017.59 1017.72
1015.61 1016.35 1016.93 1017.23 1017.18 1016.73 1015.93 1014.86 1013.66 1012.46 1011.43 1010.66 1010.21 1010.07 1010.17 1010.45 1010.80 1011.15 1011.45 1011.70 1011.90 1012.10 1012.34 1012.63 1012.98 1013.37 1013.75 1014.11 1014.41 1014.66 1014.86 1015.06 1015.27 1015.53 1015.83 1016.16 1016.50 1016.80 1017.05 1017.21 1017.31 1017.35 1017.37 1017.40 1017.46 1017.55 1017.66 1017.79 1017.90
1015.65 1016.24 1016.63 1016.74 1016.53 1015.98 1015.16 1014.14 1013.05 1012.03 1011.18 1010.58 1010.26 1010.20 1010.34 1010.61 1010.93 1011.26 1011.55 1011.81 1012.06 1012.32 1012.62 1012.96 1013.33 1013.70 1014.05 1014.35 1014.58 1014.77 1014.92 1015.09 1015.29 1015.55 1015.87 1016.22 1016.57 1016.89 1017.15 1017.33 1017.43 1017.49 1017.53 1017.57 1017.64 1017.74 1017.86 1017.99 1018.09
1015.55 1015.97 1016.17 1016.11 1015.77 1015.17 1014.37 1013.45 1012.53 1011.70 1011.05 1010.62 1010.41 1010.41 1010.55 1010.79 1011.07 1011.35 1011.62 1011.89 1012.17 1012.48 1012.83 1013.22 1013.61 1013.98 1014.30 1014.55 1014.73 1014.87 1014.99 1015.14 1015.34 1015.61 1015.94 1016.31 1016.67 1016.99 1017.25 1017.43 1017.54 1017.61 1017.66 1017.72 1017.81 1017.92 1018.05 1018.17 1018.28
1015.34 1015.59 1015.62 1015.42 1014.99 1014.37 1013.64 1012.86 1012.12 1011.49 1011.02 1010.74 1010.62 1010.65 1010.77 1010.94 1011.15 1011.37 1011.60 1011.86 1012.17 1012.52 1012.92 1013.35 1013.76 1014.13 1014.43 1014.66 1014.81 1014.93 1015.04 1015.19 1015.40 1015.69 1016.03 1016.40 1016.77 1017.08 1017.33 1017.50 1017.61 1017.69 1017.75 1017.83 1017.94 1018.08 1018.22 1018.36 1018.47
1015.06 1015.16 1015.05 1014.74 1014.27 1013.67 1013.03 1012.40 1011.84 1011.39 1011.09 1010.91 1010.85 1010.87 1010.94 1011.03 1011.15 1011.29 1011.47 1011.71 1012.02 1012.41 1012.84 1013.30 1013.74 1014.12 1014.42 1014.64 1014.80 1014.92 1015.04 1015.21 1015.45 1015.75 1016.11 1016.48 1016.84 1017.14 1017.38 1017.54 1017.65 1017.73 1017.81 1017.92 1018.06 1018.22 1018.39 1018.55 1018.67
1014.74 1014.72 1014.51 1014.15 1013.66 1013.12 1012.59 1012.10 1011.70 1011.41 1011.23 1011.12 1011.08 1011.06 1011.05 1011.05 1011.07 1011.12 1011.24 1011.44 1011.74 1012.13 1012.59 1013.06 1013.52 1013.92 1014.24 1014.48 1014.65 1014.81 1014.97 1015.17 1015.44 1015.77 1016.14 1016.51 1016.86 1017.14 1017.36 1017.52 1017.63 1017.72 1017.84 1017.98 1018.16 1018.36 1018.57 1018.76 1018.90
1014.42 1014.33 1014.07 1013.68 1013.23 1012.76 1012.33 1011.98 1011.71 1011.53 1011.42 1011.34 1011.28 1011.20 1011.11 1011.01 1010.92 1010.88 1010.93 1011.08 1011.35 1011.73 1012.18 1012.66 1013.13 1013.54 1013.89 1014.16 1014.38 1014.58 1014.79 1015.04 1015.35 1015.71 1016.08 1016.45 1016.79 1017.06 1017.27 1017.43 1017.56 1017.69 1017.85 1018.04 1018.27 1018.52 1018.77 1018.99 1019.16
1014.14 1014.01 1013.73 1013.37 1012.97 1012.59 1012.26 1012.01 1011.83 1011.71 1011.63 1011.54 1011.43 1011.29 1011.10 1010.90 1010.72 1010.60 1010.57 1010.67 1010.90 1011.24 1011.66 1012.13 1012.60 1013.02 1013.39 1013.71 1013.98 1014.24 1014.51 1014.81 1015.15 1015.53 1015.91 1016.28 1016.61 1016.89 1017.11 1017.29 1017.46 1017.64 1017.85 1018.11 1018.40 1018.71 1019.01 1019.26 1019.46
1013.91 1013.78 1013.52 1013.21 1012.89 1012.59 1012.34 1012.16 1012.02 1011.92 1011.82 1011.69 1011.51 1011.28 1011.02 1010.74 1010.48 1010.29 1010.20 1010.24 1010.41 1010.70 1011.08 1011.52 1011.97 1012.40 1012.79 1013.15 1013.47 1013.79 1014.11 1014.46 1014.83 1015.22 1015.61 1015.99 1016.32 1016.62 1016.87 1017.10 1017.33 1017.58 1017.87 1018.20 1018.56 1018.92 1019.26 1019.55 1019.77
1013.74 1013.63 1013.43 1013.20 1012.95 1012.73 1012.54 1012.38 1012.24 1012.10 1011.93 1011.73 1011.48 1011.17 1010.84 1010.51 1010.20 1009.97 1009.84 1009.82 1009.93 1010.16 1010.48 1010.87 1011.29 1011.71 1012.12 1012.51 1012.89 1013.25 1013.63 1014.01 1014.41 1014.81 1015.21 1015.59 1015.95 1016.28 1016.58 1016.88 1017.19 1017.53 1017.90 1018.30 1018.72 1019.13 1019.50 1019.82 1020.06
1013.61 1013.56 1013.45 1013.30 1013.14 1012.97 1012.80 1012.63 1012.43 1012.21 1011.95 1011.65 1011.31 1010.95 1010.57 1010.21 1009.89 1009.64 1009.48 1009.42 1009.48 1009.64 1009.89 1010.22 1010.59 1011.00 1011.42 1011.84 1012.25 1012.67 1013.08 1013.50 1013.91 1014.32 1014.73 1015.13 1015.51 1015.88 1016.25 1016.63 1017.04 1017.46 1017.92 1018.39 1018.86 1019.30 1019.70 1020.02 1020.27
1013.53 1013.56 1013.54 1013.49 1013.41 1013.28 1013.10 1012.86 1012.57 1012.23 1011.84 1011.43 1011.01 1010.59 1010.20 1009.84 1009.54 1009.30 1009.13 1009.04 1009.04 1009.13 1009.31 1009.57 1009.90 1010.28 1010.70 1011.14 1011.59 1012.05 1012.50 1012.94 1013.37 1013.79 1014.21 1014.62 1015.04 1015.47 1015.91 1016.37 1016.86 1017.38 1017.90 1018.43 1018.93 1019.40 1019.80 1020.13 1020.39
1013.48 1013.61 1013.70 1013.76 1013.74 1013.62 1013.40 1013.07 1012.65 1012.15 1011.62 1011.09 1010.58 1010.13 1009.75 1009.42 1009.16 1008.95 1008.80 1008.69 1008.64 1008.66 1008.76 1008.94 1009.20 1009.55 1009.96 1010.42 1010.91 1011.41 1011.89 1012.37 1012.82 1013.25 1013.68 1014.12 1014.57 1015.05 1015.56 1016.10 1016.67 1017.25 1017.83 1018.39 1018.91 1019.39 1019.79 1020.12 1020.38
1013.46 1013.71 1013.93 1014.08 1014.12 1014.00 1013.71 1013.26 1012.67 1012.00 1011.31 1010.66 1010.08 1009.61 1009.25 1008.98 1008.78 1008.63 1008.50 1008.38 1008.28 1008.22 1008.23 1008.32 1008.52 1008.82 1009.22 1009.70 1010.22 1010.76 1011.29 1011.80 1012.28 1012.74 1013.19 1013.65 1014.13 1014.66 1015.22 1015.83 1016.45 1017.08 1017.69 1018.27 1018.79 1019.26 1019.66 1019.99 1020.26
1013.48 1013.86 1014.21 1014.46 1014.54 1014.40 1014.02 1013.43 1012.67 1011.82 1010.97 1010.19 1009.56 1009.08 1008.76 1008.56 1008.45 1008.35 1008.25 1008.12 1007.97 1007.83 1007.74 1007.73 1007.85 1008.10 1008.48 1008.96 1009.52 1010.11 1010.70 1011.25 1011.77 1012.27 1012.75 1013.24 1013.75 1014.32 1014.92 1015.56 1016.22 1016.87 1017.49 1018.07 1018.58 1019.03 1019.43 1019.77 1020.06
1013.55 1014.08 1014.55 1014.89 1015.00 1014.83 1014.36 1013.62 1012.68 1011.65 1010.64 1009.76 1009.07 1008.61 1008.34 1008.22 1008.19 1008.16 1008.09 1007.94 1007.73 1007.50 1007.29 1007.18 1007.20 1007.39 1007.74 1008.23 1008.82 1009.47 1010.12 1010.74 1011.32 1011.86 1012.38 1012.91 1013.46 1014.05 1014.67 1015.33 1016.00 1016.65 1017.26 1017.82 1018.32 1018.76 1019.15 1019.50 1019.84
1013.70 1014.36 1014.96 1015.38 1015.51 1015.30 1014.73 1013.84 1012.73 1011.53 1010.39 1009.42 1008.69 1008.24 1008.03 1007.99 1008.04 1008.07 1008.01 1007.85 1007.57 1007.23 1006.91 1006.67 1006.58 1006.70 1007.01 1007.51 1008.14 1008.84 1009.56 1010.26 1010.92 1011.53 1012.10 1012.67 1013.25 1013.86 1014.50 1015.16 1015.82 1016.46 1017.05 1017.59 1018.06 1018.49 1018.89 1019.27 1019.64
1013.92 1014.71 1015.42 1015.90 1016.05 1015.79 1015.12 1014.10 1012.84 1011.49 1010.23 1009.18 1008.43 1008.00 1007.84 1007.88 1007.99 1008.07 1008.03 1007.82 1007.47 1007.03 1006.58 1006.21 1006.02 1006.05 1006.32 1006.81 1007.47 1008.24 1009.04 1009.83 1010.57 1011.25 1011.89 1012.51 1013.13 1013.76 1014.41 1015.06 1015.71 1016.33 1016.90 1017.41 1017.87 1018.30 1018.70 1019.11 1019.53
1014.21 1015.12 1015.91 1016.45 1016.60 1016.29 1015.53 1014.39 1013.00 1011.53 1010.17 1009.07 1008.30 1007.88 1007.77 1007.87 1008.03 1008.14 1008.09 1007.84 1007.42 1006.87 1006.29 1005.80 1005.50 1005.45 1005.68 1006.16 1006.85 1007.66 1008.54 1009.42 1010.25 1011.02 1011.73 1012.41 1013.07 1013.73 1014.39 1015.05 1015.68 1016.29 1016.84 1017.34 1017.79 1018.21 1018.62 1019.05 1019.51
1014.55 1015.54 1016.40 1016.96 1017.11 1016.75 1015.92 1014.68 1013.18 1011.63 1010.20 1009.04 1008.26 1007.86 1007.78 1007.91 1008.10 1008.22 1008.16 1007.87 1007.37 1006.72 1006.04 1005.44 1005.05 1004.92 1005.10 1005.57 1006.27 1007.14 1008.08 1009.04 1009.95 1010.81 1011.60 1012.34 1013.04 1013.73 1014.42 1015.09 1015.73 1016.33 1016.88 1017.37 1017.82 1018.25 1018.67 1019.12 1019.59
1014.88 1015.93 1016.83 1017.40 1017.52 1017.13 1016.23 1014.91 1013.35 1011.73 1010.25 1009.07 1008.28 1007.88 1007.81 1007.96 1008.16 1008.27 1008.18 1007.85 1007.29 1006.57 1005.81 1005.13 1004.66 1004.48 1004.62 1005.07 1005.78 1006.67 1007.67 1008.69 1009.68 1010.60 1011.46 1012.26 1013.02 1013.75 1014.47 1015.16 1015.82 1016.44 1017.00 1017.51 1017.97 1018.40 1018.83 1019.27 1019.75
1015.16 1016.23 1017.13 1017.69 1017.78 1017.34 1016.39 1015.04 1013.43 1011.78 1010.29 1009.10 1008.30 1007.90 1007.83 1007.97 1008.15 1008.24 1008.13 1007.76 1007.16 1006.39 1005.59 1004.86 1004.35 1004.13 1004.24 1004.68 1005.39 1006.30 1007.32 1008.38 1009.41 1010.39 1011.30 1012.15 1012.96 1013.74 1014.50 1015.23 1015.93 1016.58 1017.17 1017.70 1018.18 1018.63 1019.06 1019.49 1019.94
1015.34 1016.39 1017.26 1017.78 1017.82 1017.34 1016.36 1014.98 1013.37 1011.74 1010.25 1009.08 1008.29 1007.89 1007.81 1007.92 1008.08 1008.14 1007.99 1007.60 1006.98 1006.21 1005.39 1004.66 1004.14 1003.92 1004.02 1004.45 1005.15 1006.06 1007.08 1008.15 1009.20 1010.20 1011.14 1012.03 1012.88 1013.70 1014.51 1015.29 1016.03 1016.73 1017.36 1017.93 1018.44 1018.90 1019.32 1019.73 1020.14
1015.36 1016.36 1017.16 1017.60 1017.58 1017.06 1016.06 1014.70 1013.13 1011.54 1010.12 1008.99 1008.23 1007.84 1007.75 1007.83 1007.95 1007.98 1007.81 1007.41 1006.80 1006.05 1005.26 1004.57 1004.09 1003.89 1004.01 1004.43 1005.12 1006.00 1007.00 1008.05 1009.08 1010.08 1011.02 1011.93 1012.80 1013.66 1014.50 1015.33 1016.12 1016.87 1017.56 1018.17 1018.71 1019.18 1019.59 1019.97 1020.33
1015.22 1016.12 1016.80 1017.14 1017.04 1016.48 1015.49 1014.17 1012.68 1011.20 1009.88 1008.84 1008.14 1007.78 1007.69 1007.75 1007.84 1007.83 1007.64 1007.25 1006.67 1005.97 1005.26 1004.64 1004.23 1004.08 1004.23 1004.66 1005.34 1006.19 1007.14 1008.14 1009.13 1010.09 1011.01 1011.90 1012.78 1013.66 1014.53 1015.39 1016.23 1017.03 1017.75 1018.40 1018.97 1019.45 1019.85 1020.20 1020.50
Thickness
5697 5701 5703 5696 5679 5666 5671 5690 5707 5717 5730 5748 5755 5752 5747 5743 5741 5742 5758 5764 5763 5759 5756 5753 5751 5749 5747 5745 5743 5741 5739 5737 5735 5733 5732 5730 5729 5728 5727 5727 5726 5726 5726 5725 5724 5722 5720 5719 5717
5691 5694 5690 5677 5661 5654 5669 5691 5704 5715 5733 5748 5754 5751 5744 5744 5754 5754 5756 5759 5760 5757 5753 5750 5748 5746 5743 5741 5739 5737 5735 5733 5731 5729 5727 5726 5724 5723 5722 5722 5721 5721 5720 5719 5718 5716 5715 5714 5713
5684 5686 5674 5661 5653 5659 5678 5697 5707 5723 5737 5744 5748 5748 5743 5744 5753 5755 5758 5758 5756 5753 5750 5746 5744 5742 5740 5738 5735 5733 5732 5730 5727 5725 5723 5721 5720 5718 5717 5716 5715 5714 5714 5713 5712 5710 5709 5708 5708
5674 5668 5661 5651 5657 5677 5689 5699 5705 5714 5729 5743 5746 5737 5742 5754 5757 5758 5757 5755 5751 5748 5745 5742 5740 5738 5736 5734 5732 5730 5728 5726 5723 5721 5719 5717 5715 5713 5711 5710 5709 5708 5708 5707 5706 5705 5704 5703 5703
5662 5654 5646 5645 5660 5680 5691 5696 5701 5705 5717 5736 5740 5730 5734 5749 5758 5756 5754 5751 5747 5743 5740 5738 5736 5734 5732 5730 5728 5726 5724 5722 5719 5717 5714 5712 5710 5708 5706 5704 5703 5703 5702 5701 5700 5699 5698 5698 5697
5646 5642 5635 5641 5661 5678 5689 5696 5697 5702 5712 5728 5732 5724 5728 5743 5747 5747 5748 5746 5744 5740 5736 5733 5731 5729 5728 5726 5724 5722 5720 5718 5715 5713 5710 5708 5705 5703 5701 5700 5698 5698 5696 5695 5695 5694 5693 5692 5692
5637 5633 5635 5646 5658 5668 5688 5696 5692 5697 5706 5722 5730 5716 5722 5733 5741 5743 5741 5738 5737 5735 5732 5728 5726 5724 5723 5721 5720 5718 5716 5714 5711 5709 5706 5703 5701 5699 5697 5695 5694 5693 5691 5690 5689 5688 5688 5687 5687
5638 5632 5636 5644 5654 5668 5687 5695 5699 5700 5707 5726 5728 5713 5715 5730 5737 5737 5733 5730 5729 5728 5727 5724 5722 5720 5718 5716 5715 5713 5711 5709 5708 5705 5702 5700 5697 5695 5693 5690 5689 5688 5687 5685 5684 5683 5683 5682 5681
5636 5624 5629 5645 5656 5669 5685 5688 5696 5708 5711 5719 5726 5727 5732 5735 5732 5727 5722 5720 5720 5720 5720 5719 5717 5715 5713 5711 5710 5708 5706 5705 5703 5701 5699 5696 5693 5691 5689 5687 5685 5684 5682 5681 5679 5678 5677 5677 5676
5624 5618 5634 5656 5665 5672 5679 5682 5686 5696 5701 5707 5715 5724 5731 5729 5725 5720 5717 5715 5715 5714 5714 5714 5713 5712 5709 5707 5705 5703 5702 5700 5699 5697 5695 5692 5690 5688 5686 5683 5681 5680 5678 5677 5675 5673 5672 5671 5670
5620 5623 5639 5655 5665 5670 5672 5676 5682 5685 5688 5697 5704 5713 5719 5720 5720 5718 5717 5717 5716 5714 5712 5711 5710 5709 5706 5704 5701 5699 5698 5696 5694 5693 5691 5688 5686 5684 5682 5680 5678 5676 5674 5672 5670 5669 5667 5666 5664
5618 5628 5640 5650 5657 5661 5664 5669 5672 5677 5684 5693 5700 5707 5711 5712 5715 5717 5716 5716 5714 5712 5711 5710 5708 5706 5703 5701 5699 5696 5694 5692 5690 5689 5687 5684 5682 5680 5678 5676 5674 5672 5669 5667 5665 5663 5661 5659 5658
5612 5622 5634 5643 5648 5653 5660 5662 5666 5672 5684 5689 5695 5698 5699 5703 5708 5712 5714 5714 5713 5712 5711 5709 5707 5704 5701 5698 5696 5694 5691 5689 5688 5686 5684 5681 5679 5676 5673 5671 5669 5667 5665 5662 5660 5657 5655 5653 5651
5610 5616 5624 5633 5639 5646 5651 5657 5660 5670 5680 5683 5686 5687 5691 5695 5701 5704 5706 5706 5707 5709 5709 5709 5706 5704 5701 5698 5695 5693 5689 5687 5685 5683 5681 5679 5676 5673 5670 5667 5665 5662 5660 5657 5654 5651 5649 5646 5643
5606 5607 5613 5625 5633 5639 5644 5646 5655 5668 5671 5672 5678 5682 5685 5690 5696 5700 5703 5704 5705 5706 5707 5706 5706 5703 5700 5697 5694 5691 5688 5685 5683 5681 5679 5676 5673 5670 5667 5664 5661 5658 5655 5651 5648 5644 5641 5638 5636
5596 5595 5598 5615 5626 5632 5629 5634 5652 5662 5662 5664 5671 5677 5681 5687 5693 5698 5702 5704 5704 5704 5703 5704 5704 5701 5699 5697 5693 5690 5687 5684 5682 5679 5676 5674 5670 5667 5664 5661 5657 5653 5649 5646 5642 5637 5633 5629 5626
5580 5579 5587 5601 5618 5622 5622 5629 5648 5656 5656 5657 5663 5670 5677 5682 5689 5695 5700 5701 5702 5702 5702 5701 5701 5700 5697 5695 5692 5689 5686 5683 5680 5677 5674 5671 5668 5665 5661 5657 5653 5648 5644 5640 5636 5630 5626 5621 5618
5568 5573 5582 5590 5607 5614 5615 5623 5640 5647 5650 5652 5658 5664 5670 5678 5687 5692 5695 5698 5699 5700 5700 5699 5699 5698 5695 5691 5687 5684 5682 5680 5678 5675 5672 5669 5665 5661 5657 5652 5647 5643 5638 5632 5628 5623 5618 5613 5610
5569 5572 5576 5587 5601 5606 5610 5617 5632 5640 5642 5648 5655 5661 5667 5675 5683 5686 5689 5692 5694 5695 5695 5696 5695 5695 5692 5687 5682 5678 5676 5675 5672 5670 5668 5664 5661 5657 5653 5647 5641 5637 5632 5627 5622 5616 5610 5604 5602
5564 5566 5571 5582 5593 5599 5601 5609 5625 5635 5642 5650 5656 5662 5666 5670 5675 5680 5683 5686 5688 5690 5691 5692 5692 5692 5691 5688 5685 5681 5676 5671 5668 5666 5663 5661 5657 5653 5648 5642 5636 5631 5626 5620 5616 5611 5603 5598 5593
5559 5561 5567 5573 5580 5587 5591 5601 5617 5632 5640 5648 5655 5661 5666 5669 5671 5674 5676 5679 5681 5683 5685 5687 5688 5688 5688 5686 5680 5672 5664 5658 5656 5656 5655 5654 5651 5646 5642 5637 5632 5626 5621 5615 5610 5606 5600 5591 5585
5554 5563 5567 5568 5564 5563 5573 5575 5605 5619 5630 5642 5648 5653 5658 5663 5666 5668 5671 5673 5676 5678 5680 5681 5683 5683 5682 5679 5674 5669 5664 5659 5656 5653 5648 5644 5641 5639 5635 5630 5626 5620 5615 5609 5605 5600 5595 5588 5580
5552 5558 5559 5558 5554 5550 5559 5562 5596 5610 5623 5636 5643 5647 5651 5656 5658 5661 5664 5666 5670 5671 5672 5673 5675 5675 5674 5672 5670 5666 5663 5658 5648 5642 5637 5633 5630 5628 5626 5622 5617 5613 5607 5602 5598 5592 5587 5582 5575
5551 5549 5548 5540 5535 5535 5551 5549 5581 5602 5620 5629 5636 5640 5644 5647 5650 5653 5656 5658 5660 5662 5663 5663 5664 5665 5664 5663 5661 5659 5655 5647 5638 5633 5627 5623 5620 5617 5615 5612 5608 5604 5599 5594 5589 5584 5579 5573 5568
5543 5531 5522 5526 5527 5534 5555 5552 5577 5605 5616 5621 5627 5632 5636 5639 5640 5643 5646 5647 5649 5650 5651 5651 5652 5653 5653 5652 5651 5650 5646 5640 5635 5629 5622 5616 5611 5608 5606 5603 5598 5594 5589 5584 5579 5574 5569 5563 5558
5535 5530 5517 5520 5524 5538 5557 5557 5583 5606 5613 5618 5621 5624 5627 5628 5630 5633 5634 5635 5636 5637 5638 5638 5639 5640 5640 5640 5640 5639 5635 5630 5626 5622 5617 5612 5608 5602 5597 5593 5588 5584 5579 5574 5569 5563 5558 5553 5547
5531 5528 5531 5523 5521 5523 5543 5561 5583 5604 5606 5609 5611 5614 5615 5617 5619 5620 5621 5622 5622 5623 5624 5624 5626 5628 5628 5628 5627 5625 5621 5618 5614 5609 5605 5600 5596 5591 5586 5582 5578 5573 5568 5563 5558 5553 5548 5542 5536
5536 5532 5518 5507 5509 5520 5538 5550 5573 5591 5595 5598 5600 5601 5604 5606 5606 5607 5607 5607 5608 5609 5610 5611 5613 5615 5616 5615 5613 5612 5608 5604 5600 5596 5592 5589 5585 5581 5576 5572 5567 5562 5557 5553 5548 5542 5537 5532 5525
5529 5529 5521 5507 5505 5507 5521 5557 5580 5587 5587 5587 5589 5592 5593 5594 5594 5593 5592 5592 5592 5593 5595 5596 5598 5599 5599 5599 5598 5595 5592 5589 5585 5582 5579 5576 5574 5569 5566 5562 5557 5553 5547 5542 5537 5532 5527 5521 5515
5528 5526 5518 5504 5504 5502 5503 5547 5580 5578 5579 5580 5582 5585 5586 5586 5583 5581 5578 5577 5576 5576 5577 5578 5580 5582 5582 5581 5580 5577 5575 5573 5571 5568 5566 5564 5561 5558 5555 5551 5547 5542 5537 5532 5527 5522 5516 5510 5504